Simultaneous Nadir Overpasses (SNOs) Predictions

Prediction of SNOs between GOES-17 and METOP-A Satellite Orbit:

Table of predicted SNOs for the next 14.0 days since TLE Epoch: 10/30/2021
Index Date Time (GOES-17) GOES-17 Lat,Lon METOP-A Lat,Lon Distance(km) Time Diff (sec)
1 10/30/2021 17:01:23 -0.04,-137.23 -0.13,-136.78 50.90 80
2 11/01/2021 05:17:42 0.04,-137.21 -0.85,-141.42 478.58 80
3 11/02/2021 04:59:40 0.04,-137.21 0.20,-136.43 88.21 80
4 11/03/2021 17:15:51 -0.04,-137.21 0.81,-141.03 435.69 80
5 11/04/2021 16:57:50 -0.04,-137.20 -0.31,-136.06 130.64 80
6 11/06/2021 05:14:08 0.04,-137.17 -0.73,-140.69 400.27 80
7 11/07/2021 04:56:07 0.04,-137.16 0.33,-135.70 165.47 80
8 11/08/2021 17:12:17 -0.03,-137.14 0.68,-140.30 360.13 80
9 11/09/2021 16:54:17 -0.03,-137.12 -0.44,-135.33 205.21 80
10 11/11/2021 05:10:35 0.02,-137.08 -0.59,-139.96 326.92 80
11 11/12/2021 04:52:34 0.02,-137.06 0.48,-134.97 238.26 80
